Location: Ocean City
(38.3360°N, 75.0850°W)
Time: 23:08:14
(UTC-04:00)

MOZHAYETS 4 - Pass Details

Date: 28 May 2019
Orbit: 661 x 681 km, 98.0° (Epoch: 17 June)

Event Time Altitude Azimuth Distance (km) Brightness Sun altitude
Exits shadow 03:02:34 52° 146° (SE) 832 8.0 -23.4°
Maximum altitude 03:03:36 76° 76° (ENE) 697 7.8 -23.3°
Drops below altitude 10° 03:08:12 10° 351° (N) 2,105 10.9 -22.8°
Sets 03:10:26 0° 350° (N) 3,019 11.8 -22.6°
